Weather History for Indiana, PA

Change the Weather History Date:

Tuesday, September 17, 2013

  Actual Average Record
Temperature  
Mean Temperature 54 °F -  
Max Temperature 66 °F 74 °F 136 °F (1997)
Min Temperature 42 °F 52 °F 29 °F (1959)
Degree Days  
Heating Degree Days 11    
Growing Degree Days 4 (Base 50)    
Moisture  
Dew Point 42 °F    
Average Humidity 71    
Maximum Humidity 100    
Minimum Humidity 30    
Precipitation  
Precipitation 0.00 in - - ()
Sea Level Pressure  
Sea Level Pressure 30.36 in    
Wind  
Wind Speed 3 mph (ESE)    
Max Wind Speed 10 mph    
Max Gust Speed 16 mph    
Visibility 10 miles    
Events      
Averages and records for this station are not official NWS values.
T = Trace of Precipitation, MM = Missing Value Source: NWS Daily Summary

Daily Weather History Graph

Daily Weather History Graph

Search for Another Location

Airport:

Trip Planner

Search our weather history database for the weather conditions in past years. The results will help you decide how hot, cold, wet, or windy it might be!

Date:

Astronomy

Sep. 17, 2013 Rise Set
Actual Time 6:59 AM EDT 7:21 PM EDT
Civil Twilight 6:31 AM EDT 7:48 PM EDT
Nautical Twilight 5:59 AM EDT 8:21 PM EDT
Astronomical Twilight 5:26 AM EDT 8:53 PM EDT
Moon 6:07 PM EDT (9/17) 4:51 AM EDT (9/17)
Length of Visible Light 13h 17m
Length of Day
12h 22m
Waxing Gibbous, 96% of the Moon is Illuminated
Sep 17
Waxing Gibbous
Sep 19
Full
Sep 26
Last Quarter
Oct 4
New
Oct 11
First Quarter

Hourly Weather History & Observations

Time (EDT) Temp. Windchill Dew Point Humidity Pressure Visibility Wind Dir Wind Speed Gust Speed Precip Events Conditions
12:15 AM 48.2 °F - 46.4 °F 93% 30.33 in 10.0 mi Calm Calm - N/A   Unknown
12:35 AM 48.2 °F - 46.4 °F 93% 30.34 in 10.0 mi Calm Calm - N/A   Unknown
12:55 AM 48.2 °F - 46.4 °F 93% 30.34 in 10.0 mi Calm Calm - N/A   Unknown
1:15 AM 48.2 °F - 46.4 °F 93% 30.34 in 10.0 mi Calm Calm - N/A   Unknown
1:35 AM 46.4 °F - 46.4 °F 100% 30.34 in 10.0 mi Calm Calm - N/A   Unknown
1:55 AM 46.4 °F - 46.4 °F 100% 30.34 in 10.0 mi Calm Calm - N/A   Unknown
2:15 AM 46.4 °F - 46.4 °F 100% 30.35 in 10.0 mi Calm Calm - N/A   Unknown
2:35 AM 46.4 °F - 46.4 °F 100% 30.34 in 10.0 mi Calm Calm - N/A   Unknown
2:55 AM 46.4 °F - 46.4 °F 100% 30.35 in 10.0 mi Calm Calm - N/A   Unknown
3:15 AM 46.4 °F - 44.6 °F 93% 30.36 in 10.0 mi Calm Calm - N/A   Unknown
3:35 AM 46.4 °F - 44.6 °F 93% 30.36 in 10.0 mi Calm Calm - N/A   Unknown
3:55 AM 44.6 °F - 44.6 °F 100% 30.36 in 10.0 mi Calm Calm - N/A   Unknown
4:15 AM 44.6 °F 42.2 °F 44.6 °F 100% 30.37 in 10.0 mi East 4.6 mph - N/A   Unknown
4:35 AM 44.6 °F 42.2 °F 42.8 °F 93% 30.37 in 10.0 mi East 4.6 mph - N/A   Unknown
4:55 AM 44.6 °F 41.4 °F 42.8 °F 93% 30.37 in 10.0 mi East 5.8 mph - N/A   Unknown
5:15 AM 42.8 °F 38.6 °F 41.0 °F 93% 30.38 in 10.0 mi East 6.9 mph - N/A   Unknown
5:35 AM 42.8 °F 40.1 °F 41.0 °F 93% 30.38 in 10.0 mi East 4.6 mph - N/A   Unknown
5:55 AM 42.8 °F 40.1 °F 39.2 °F 87% 30.39 in 10.0 mi East 4.6 mph - N/A   Unknown
6:15 AM 42.8 °F 41.1 °F 35.6 °F 76% 30.39 in 10.0 mi East 3.5 mph - N/A   Unknown
6:35 AM 42.8 °F 39.3 °F 42.8 °F 100% 30.40 in 10.0 mi East 5.8 mph - N/A   Unknown
6:55 AM 42.8 °F 39.3 °F 42.8 °F 100% 30.40 in 10.0 mi East 5.8 mph - N/A   Unknown
7:15 AM 42.8 °F 41.1 °F 42.8 °F 100% 30.41 in 10.0 mi East 3.5 mph - N/A   Unknown
7:35 AM 42.8 °F 39.3 °F 42.8 °F 100% 30.42 in 10.0 mi East 5.8 mph - N/A   Unknown
7:55 AM 44.6 °F 39.2 °F 42.8 °F 93% 30.41 in 10.0 mi East 10.4 mph 16.1 mph N/A   Unknown
8:15 AM 44.6 °F 39.7 °F 42.8 °F 93% 30.42 in 10.0 mi East 9.2 mph - N/A   Unknown
8:35 AM 44.6 °F 40.2 °F 42.8 °F 93% 30.42 in 10.0 mi East 8.1 mph - N/A   Unknown
8:55 AM 46.4 °F 42.4 °F 42.8 °F 87% 30.42 in 10.0 mi East 8.1 mph - N/A   Unknown
9:15 AM 48.2 °F - 42.8 °F 82% 30.43 in 10.0 mi East 9.2 mph - N/A   Unknown
9:35 AM 48.2 °F - 42.8 °F 82% 30.43 in 10.0 mi East 9.2 mph - N/A   Unknown
9:55 AM 50.0 °F - 42.8 °F 76% 30.44 in 10.0 mi ESE 8.1 mph - N/A   Unknown
10:15 AM 51.8 °F - 42.8 °F 71% 30.43 in 10.0 mi ESE 5.8 mph - N/A   Unknown
10:35 AM 53.6 °F - 42.8 °F 67% 30.43 in 10.0 mi East 9.2 mph - N/A   Unknown
10:55 AM 53.6 °F - 42.8 °F 67% 30.42 in 10.0 mi ESE 6.9 mph - N/A   Unknown
11:15 AM 55.4 °F - 42.8 °F 63% 30.42 in 10.0 mi SE 6.9 mph - N/A   Unknown
11:35 AM 57.2 °F - 42.8 °F 59% 30.42 in 10.0 mi ESE 6.9 mph - N/A   Unknown
11:55 AM 57.2 °F - 42.8 °F 59% 30.42 in 10.0 mi ESE 9.2 mph - N/A   Unknown
12:15 PM 57.2 °F - 42.8 °F 59% 30.41 in 10.0 mi East 8.1 mph - N/A   Unknown
12:35 PM 59.0 °F - 42.8 °F 55% 30.40 in 10.0 mi SE 8.1 mph - N/A   Unknown
12:55 PM 60.8 °F - 41.0 °F 48% 30.40 in 10.0 mi ESE 8.1 mph - N/A   Unknown
1:15 PM 60.8 °F - 41.0 °F 48% 30.39 in 10.0 mi East 6.9 mph - N/A   Unknown
1:35 PM 62.6 °F - 41.0 °F 45% 30.38 in 10.0 mi East 9.2 mph - N/A   Unknown
1:55 PM 62.6 °F - 39.2 °F 42% 30.37 in 10.0 mi East 6.9 mph - N/A   Unknown
2:15 PM 64.4 °F - 41.0 °F 42% 30.37 in 10.0 mi ENE 8.1 mph - N/A   Unknown
2:35 PM 64.4 °F - 39.2 °F 40% 30.36 in 10.0 mi East 6.9 mph - N/A   Unknown
2:55 PM 64.4 °F - 37.4 °F 37% 30.36 in 10.0 mi Calm Calm - N/A   Unknown
3:15 PM 66.2 °F - 39.2 °F 37% 30.35 in 10.0 mi SE 8.1 mph - N/A   Unknown
3:35 PM 66.2 °F - 39.2 °F 37% 30.34 in 10.0 mi ESE 6.9 mph - N/A   Unknown
3:55 PM 66.2 °F - 37.4 °F 35% 30.34 in 10.0 mi East 9.2 mph - N/A   Unknown
4:15 PM 66.2 °F - 37.4 °F 35% 30.33 in 10.0 mi ESE 8.1 mph - N/A   Unknown
4:35 PM 66.2 °F - 33.8 °F 30% 30.33 in 10.0 mi ESE 4.6 mph - N/A   Unknown
4:55 PM 66.2 °F - 33.8 °F 30% 30.32 in 10.0 mi SE 5.8 mph - N/A   Unknown
5:15 PM 66.2 °F - 35.6 °F 32% 30.32 in 10.0 mi ESE 5.8 mph - N/A   Unknown
5:35 PM 64.4 °F - 35.6 °F 34% 30.32 in 10.0 mi ESE 10.4 mph - N/A   Unknown
5:55 PM 64.4 °F - 37.4 °F 37% 30.32 in 10.0 mi East 5.8 mph - N/A   Unknown
6:15 PM 64.4 °F - 39.2 °F 40% 30.32 in 10.0 mi East 4.6 mph - N/A   Unknown
6:35 PM 62.6 °F - 39.2 °F 42% 30.32 in 10.0 mi ESE 5.8 mph - N/A   Unknown
6:55 PM 62.6 °F - 39.2 °F 42% 30.32 in 10.0 mi ESE 5.8 mph - N/A   Unknown
7:15 PM 60.8 °F - 42.8 °F 52% 30.31 in 10.0 mi East 3.5 mph - N/A   Unknown
7:35 PM 57.2 °F - 44.6 °F 63% 30.31 in 10.0 mi East 3.5 mph - N/A   Unknown
7:55 PM 55.4 °F - 44.6 °F 67% 30.32 in 10.0 mi Calm Calm - N/A   Unknown
8:15 PM 53.6 °F - 44.6 °F 72% 30.32 in 10.0 mi Calm Calm - N/A   Unknown
8:35 PM 53.6 °F - 42.8 °F 67% 30.32 in 10.0 mi ESE 3.5 mph - N/A   Unknown
8:55 PM 53.6 °F - 42.8 °F 67% 30.32 in 10.0 mi ESE 3.5 mph - N/A   Unknown
9:15 PM 53.6 °F - 42.8 °F 67% 30.32 in 10.0 mi ESE 3.5 mph - N/A   Unknown
9:35 PM 51.8 °F - 42.8 °F 71% 30.32 in 10.0 mi Calm Calm - N/A   Unknown
9:55 PM 51.8 °F - 41.0 °F 67% 30.32 in 10.0 mi Calm Calm - N/A   Unknown
10:15 PM 51.8 °F - 41.0 °F 67% 30.32 in 10.0 mi Calm Calm - N/A   Unknown
10:35 PM 50.0 °F - 42.8 °F 76% 30.32 in 10.0 mi East 4.6 mph - N/A   Unknown
10:55 PM 48.2 °F - 42.8 °F 82% 30.32 in 10.0 mi East 3.5 mph - N/A   Unknown
11:15 PM 48.2 °F - 41.0 °F 76% 30.32 in 10.0 mi East 4.6 mph - N/A   Unknown
11:35 PM 48.2 °F - 42.8 °F 82% 30.31 in 10.0 mi East 4.6 mph - N/A   Unknown
11:55 PM 46.4 °F - 42.8 °F 87% 30.31 in 10.0 mi Calm Calm - N/A   Unknown